User: anonymous   Login
Location: Unspecified
(0.0000°N, 0.0000°E)
Time: 00:01:29
(UTC+00:00)
Language:

COSMOS 2468 - Orbit

View from above orbital plane
View from above orbital plane
View from above satellite
View from above satellite

Ground track
Ground track

The orbit data is extracted from the following two-line orbital elements,

1 37154U 10043C   16270.90180853  .00000028  00000-0  12970-3 0  9990
2 37154  82.4584 124.9117 0014698 129.5248 230.7127 12.43626779274627
Epoch (UTC): 26 September 2016 21:38:36
Eccentricity: 0.0014698
inclination: 82.4584°
perigee height: 1479 km
apogee height: 1503 km
right ascension of ascending node: 124.9117°
argument of perigee: 129.5248°
revolutions per day: 12.43626779
mean anomaly at epoch: 230.7127°
orbit number at epoch: 27462

The dashed part of the orbit path shows where the satellite is in the earth's shadow,  

DLR